TimeAKDT,TemperatureF,Dew PointF,Humidity,Sea Level PressureIn,VisibilityMPH,Wind Direction,Wind SpeedMPH,Gust SpeedMPH,PrecipitationIn,Events,Conditions,WindDirDegrees,DateUTC
12:53 AM,32.0,21.0,64,30.02,10.0,Variable,6.9,28.8,N/A,,Overcast,0,2012-10-16 08:53:00
1:53 AM,32.0,17.1,54,30.04,10.0,North,17.3,23.0,N/A,,Scattered Clouds,350,2012-10-16 09:53:00
2:53 AM,33.1,18.0,54,30.05,10.0,NNW,18.4,27.6,N/A,,Scattered Clouds,340,2012-10-16 10:53:00
3:53 AM,33.1,21.0,61,30.06,10.0,NNW,19.6,25.3,0.00,,Scattered Clouds,330,2012-10-16 11:53:00
4:53 AM,32.0,23.0,69,30.08,10.0,NNW,18.4,23.0,N/A,,Mostly Cloudy,330,2012-10-16 12:53:00
5:53 AM,30.9,26.1,82,30.08,3.0,North,18.4,-,0.00,Snow,Light Snow,350,2012-10-16 13:53:00
5:57 AM,30.2,26.6,86,30.11,1.8,NW,13.8,20.7,0.00,Snow,Light Snow,320,2012-10-16 13:57:00
6:05 AM,30.2,26.6,86,30.11,3.0,NNW,11.5,-,0.00,Snow,Light Snow,330,2012-10-16 14:05:00
6:30 AM,32.0,26.6,80,30.12,10.0,NW,11.5,-,0.00,,Overcast,320,2012-10-16 14:30:00
6:53 AM,32.0,23.0,69,30.08,10.0,NNW,18.4,24.2,0.01,,Mostly Cloudy,340,2012-10-16 14:53:00
7:53 AM,32.0,23.0,69,30.10,10.0,North,12.7,24.2,N/A,,Mostly Cloudy,350,2012-10-16 15:53:00
8:53 AM,32.0,24.1,73,30.12,8.0,NNW,20.7,29.9,0.00,Snow,Light Snow,340,2012-10-16 16:53:00
9:53 AM,32.0,21.9,66,30.14,10.0,North,16.1,24.2,0.00,,Scattered Clouds,10,2012-10-16 17:53:00
10:53 AM,33.1,19.0,56,30.14,10.0,North,17.3,-,0.00,,Overcast,350,2012-10-16 18:53:00
11:53 AM,33.1,23.0,66,30.17,10.0,North,16.1,23.0,0.00,,Clear,360,2012-10-16 19:53:00
12:53 PM,34.0,25.0,70,30.17,10.0,North,15.0,-,N/A,,Partly Cloudy,360,2012-10-16 20:53:00
1:53 PM,34.0,24.1,67,30.18,10.0,North,11.5,-,N/A,,Partly Cloudy,10,2012-10-16 21:53:00
2:53 PM,34.0,26.1,73,30.19,9.0,North,12.7,-,N/A,,Overcast,350,2012-10-16 22:53:00
2:58 PM,33.8,26.6,75,30.22,1.5,North,16.1,21.9,0.00,Snow,Light Snow,350,2012-10-16 22:58:00
3:01 PM,32.0,26.6,80,30.22,0.8,North,13.8,21.9,0.00,Snow,Light Snow,350,2012-10-16 23:01:00
3:14 PM,32.0,30.2,93,30.22,1.2,North,9.2,-,0.00,Snow,Light Snow,360,2012-10-16 23:14:00
3:18 PM,33.8,28.4,81,30.22,7.0,NNW,12.7,-,0.00,Snow,Light Snow,340,2012-10-16 23:18:00
3:53 PM,34.0,27.0,75,30.19,9.0,NNE,10.4,-,0.00,,Mostly Cloudy,20,2012-10-16 23:53:00
4:53 PM,35.1,24.1,64,30.18,10.0,NNW,15.0,-,0.00,,Scattered Clouds,330,2012-10-17 00:53:00
5:53 PM,33.1,28.0,82,30.20,5.0,North,12.7,-,0.00,Snow,Light Snow,350,2012-10-17 01:53:00
6:53 PM,34.0,27.0,75,30.20,10.0,NNW,4.6,-,0.00,,Mostly Cloudy,330,2012-10-17 02:53:00
7:53 PM,33.1,25.0,72,30.21,10.0,NNW,15.0,-,N/A,,Scattered Clouds,340,2012-10-17 03:53:00
8:53 PM,33.1,25.0,72,30.22,10.0,NNW,10.4,-,N/A,,Mostly Cloudy,340,2012-10-17 04:53:00
9:11 PM,32.0,26.6,80,30.26,5.0,North,17.3,33.4,0.00,Snow,Light Snow,350,2012-10-17 05:11:00
9:22 PM,30.2,28.4,93,30.27,1.8,North,17.3,-,0.00,Snow,Light Snow,350,2012-10-17 05:22:00
9:25 PM,30.2,28.4,93,30.27,1.0,North,13.8,-,0.00,Snow,Light Snow,360,2012-10-17 05:25:00
9:31 PM,30.2,28.4,93,30.27,1.2,North,11.5,-,0.00,Snow,Light Snow,360,2012-10-17 05:31:00
9:35 PM,30.2,28.4,93,30.27,4.0,North,11.5,-,0.00,Snow,Light Snow,360,2012-10-17 05:35:00
9:45 PM,32.0,26.6,80,30.27,10.0,North,11.5,-,0.00,,Overcast,360,2012-10-17 05:45:00
9:53 PM,32.0,26.1,79,30.24,10.0,North,10.4,-,0.00,,Overcast,360,2012-10-17 05:53:00
10:53 PM,33.1,25.0,72,30.25,10.0,NNW,13.8,-,N/A,,Overcast,330,2012-10-17 06:53:00
11:53 PM,33.1,24.1,70,30.26,10.0,NNW,11.5,-,N/A,,Mostly Cloudy,330,2012-10-17 07:53:00